Hutchinson, MN

6:18 PM CDT on July 24, 2016 (GMT -0500)
Hutchinson Municipal-Butler

Weather History for KHCD - February, 2013

Change the Weather History Date:

Saturday, February 16, 2013

  Actual Average Record
Temperature  
Mean Temperature 8 °F -  
Max Temperature 14 °F 25 °F 60 °F (1981)
Min Temperature 3 °F 6 °F -28 °F (1967)
Degree Days  
Heating Degree Days 56    
Moisture  
Dew Point 8 °F    
Average Humidity 87    
Maximum Humidity 93    
Minimum Humidity 81    
Precipitation  
Precipitation 0.00 in - - ()
Sea Level Pressure  
Sea Level Pressure 30.14 in    
Wind  
Wind Speed 5 mph (East)    
Max Wind Speed 9 mph    
Max Gust Speed -    
Visibility 5 miles    
Events Snow    
Averages and records for this station are not official NWS values.
T = Trace of Precipitation, MM = Missing Value Source: NWS Daily Summary

Daily Weather History Graph

Daily Weather History Graph

Search for Another Location

Airport or City:

Trip Planner

Search our weather history database for the weather conditions in past years. The results will help you decide how hot, cold, wet, or windy it might be!

Date:

Astronomy

Feb. 16, 2013 Rise Set
Actual Time 7:16 AM CST 5:47 PM CST
Civil Twilight 6:46 AM CST 6:17 PM CST
Nautical Twilight 6:12 AM CST 6:51 PM CST
Astronomical Twilight 5:38 AM CST 7:25 PM CST
Moon 10:10 AM CST (2/16) 12:06 AM CST (2/16)
Length of Visible Light 11h 31m
Length of Day
10h 31m
Waxing Crescent, 39% of the Moon is Illuminated
Feb 16
Waxing Crescent
Feb 17
First Quarter
Feb 25
Full
Mar 4
Last Quarter
Mar 11
New

Hourly Weather History & Observations

Time (CST) Temp. Windchill Dew Point Humidity Pressure Visibility Wind Dir Wind Speed Gust Speed Precip Events Conditions
12:08 AM 3.9 °F -8.2 °F 2.3 °F 93% 30.25 in 7.0 mi NW 6.9 mph - N/A Snow Light Snow
12:28 AM 6.6 °F -6.1 °F 4.8 °F 92% 30.25 in 3.0 mi NW 8.1 mph - N/A Snow Light Snow
12:49 AM 9.1 °F -4.0 °F 7.5 °F 93% 30.24 in 2.5 mi NW 9.2 mph - N/A Snow Light Snow
1:08 AM 9.1 °F -3.0 °F 7.5 °F 93% 30.23 in 3.0 mi NW 8.1 mph - N/A Snow Light Snow
1:28 AM 9.3 °F -0.5 °F 7.7 °F 93% 30.23 in 4.0 mi NW 5.8 mph - N/A Snow Light Snow
1:48 AM 9.7 °F -0.1 °F 8.1 °F 93% 30.23 in 4.0 mi NW 5.8 mph - N/A Snow Light Snow
2:08 AM 10.2 °F 0.6 °F 8.4 °F 92% 30.23 in 4.0 mi NNW 5.8 mph - N/A Snow Light Snow
2:28 AM 10.4 °F -0.4 °F 8.6 °F 92% 30.21 in 4.0 mi NNW 6.9 mph - N/A Snow Light Snow
2:48 AM 11.5 °F 2.1 °F 9.9 °F 93% 30.21 in 3.0 mi NW 5.8 mph - N/A Snow Light Snow
3:08 AM 10.8 °F -1.1 °F 9.0 °F 92% 30.21 in 4.0 mi NW 8.1 mph - N/A Snow Light Snow
3:28 AM 10.4 °F 0.8 °F 8.6 °F 92% 30.20 in 4.0 mi WNW 5.8 mph - N/A Snow Light Snow
3:48 AM 10.4 °F 2.2 °F 8.6 °F 92% 30.19 in 4.0 mi West 4.6 mph - N/A Snow Light Snow
4:08 AM 9.5 °F -0.3 °F 7.7 °F 92% 30.19 in 5.0 mi West 5.8 mph - N/A Snow Light Snow
4:28 AM 9.1 °F -0.7 °F 7.3 °F 92% 30.19 in 7.0 mi West 5.8 mph - N/A Snow Light Snow
4:49 AM 9.1 °F -0.7 °F 7.2 °F 92% 30.18 in 7.0 mi West 5.8 mph - N/A Snow Light Snow
5:08 AM 9.1 °F 0.8 °F 7.3 °F 92% 30.18 in 5.0 mi West 4.6 mph - N/A Snow Light Snow
5:28 AM 9.1 °F - 7.2 °F 92% 30.18 in 4.0 mi Calm Calm - N/A Snow Light Snow
5:48 AM 9.1 °F - 7.2 °F 92% 30.18 in 2.5 mi Calm Calm - N/A Snow Light Snow
6:08 AM 9.1 °F - 7.2 °F 92% 30.17 in 5.0 mi Calm Calm - N/A Snow Light Snow
6:28 AM 9.1 °F - 7.3 °F 92% 30.17 in 7.0 mi Calm Calm - N/A Snow Light Snow
6:48 AM 9.1 °F - 7.3 °F 92% 30.17 in 7.0 mi Calm Calm - N/A Snow Light Snow
7:08 AM 9.1 °F 2.6 °F 7.3 °F 92% 30.18 in 4.0 mi West 3.5 mph - N/A Snow Light Snow
7:28 AM 9.1 °F - 7.3 °F 92% 30.18 in 3.0 mi Calm Calm - N/A Snow Light Snow
7:48 AM 9.1 °F - 7.3 °F 92% 30.18 in 1.5 mi Calm Calm - N/A Snow Light Snow
8:08 AM 9.1 °F - 7.3 °F 92% 30.18 in 0.8 mi Calm Calm - N/A Snow Light Snow
8:19 AM 9.1 °F - 7.2 °F 92% 30.18 in 0.8 mi Calm Calm - N/A Snow Light Snow
8:50 AM 8.6 °F - 6.8 °F 92% 30.17 in 0.5 mi Calm Calm - N/A   Overcast
9:05 AM 8.6 °F 2.0 °F 6.8 °F 92% 30.16 in 0.8 mi ESE 3.5 mph - N/A   Overcast
9:25 AM 8.6 °F - 6.8 °F 92% 30.16 in 1.2 mi Calm Calm - N/A   Mostly Cloudy
9:42 AM 9.1 °F 2.6 °F 6.4 °F 89% 30.16 in 2.0 mi SE 3.5 mph - N/A Snow Light Snow
9:48 AM 9.1 °F 2.6 °F 6.1 °F 87% 30.16 in 2.5 mi SE 3.5 mph - N/A Snow Light Snow
10:08 AM 9.1 °F 2.6 °F 6.1 °F 87% 30.16 in - ESE 3.5 mph - N/A Snow Light Snow
10:28 AM 9.1 °F -0.7 °F 5.9 °F 87% 30.16 in - East 5.8 mph - N/A   Overcast
10:48 AM 9.3 °F 1.0 °F 5.9 °F 86% 30.15 in - ESE 4.6 mph - N/A   Overcast
11:08 AM 10.4 °F 0.8 °F 7.0 °F 86% 30.15 in - East 5.8 mph - N/A   Overcast
11:26 AM 10.4 °F 2.2 °F 6.8 °F 85% 30.15 in - East 4.6 mph - N/A   Unknown
11:49 AM 11.7 °F 3.7 °F 7.7 °F 84% 30.15 in - ESE 4.6 mph - N/A   Unknown
12:08 PM 11.7 °F 3.7 °F 7.5 °F 83% 30.15 in - East 4.6 mph - N/A   Unknown
12:28 PM 11.8 °F 2.5 °F 7.5 °F 83% 30.14 in - East 5.8 mph - N/A   Clear
12:48 PM 14.0 °F 5.1 °F 9.5 °F 82% 30.14 in - ESE 5.8 mph - N/A   Clear
1:08 PM 14.0 °F 3.9 °F 9.5 °F 82% 30.13 in - ESE 6.9 mph - N/A   Clear
1:25 PM 14.0 °F 3.9 °F 9.5 °F 82% 30.13 in - ESE 6.9 mph - N/A   Clear
1:48 PM 14.0 °F 2.9 °F 9.5 °F 82% 30.12 in - ESE 8.1 mph - N/A   Clear
2:08 PM 14.0 °F 2.9 °F 9.3 °F 82% 30.11 in - East 8.1 mph - N/A   Clear
2:28 PM 14.0 °F 5.1 °F 9.3 °F 82% 30.11 in - SE 5.8 mph - N/A   Clear
2:48 PM 14.0 °F 5.1 °F 9.3 °F 82% 30.11 in - ESE 5.8 mph - N/A   Clear
3:08 PM 14.4 °F 3.3 °F 9.5 °F 81% 30.10 in - ESE 8.1 mph - N/A   Clear
3:28 PM 14.2 °F 4.1 °F 9.3 °F 81% 30.11 in - ESE 6.9 mph - N/A   Clear
3:48 PM 14.2 °F 4.1 °F 9.3 °F 81% 30.11 in - ESE 6.9 mph - N/A   Clear
4:08 PM 14.0 °F 5.1 °F 9.1 °F 81% 30.11 in - ESE 5.8 mph - N/A   Clear
4:28 PM 14.0 °F 5.1 °F 9.1 °F 81% 30.11 in - ESE 5.8 mph - N/A   Clear
4:48 PM 14.0 °F 6.5 °F 9.5 °F 82% 30.11 in - East 4.6 mph - N/A   Clear
5:09 PM 12.6 °F 3.4 °F 8.1 °F 82% 30.11 in - East 5.8 mph - N/A   Unknown
5:28 PM 14.0 °F 5.1 °F 9.5 °F 82% 30.11 in - East 5.8 mph - N/A   Mostly Cloudy
5:48 PM 14.0 °F 5.1 °F 9.5 °F 82% 30.11 in - East 5.8 mph - N/A   Overcast
6:08 PM 14.0 °F 5.1 °F 9.5 °F 82% 30.11 in 10.0 mi East 5.8 mph - N/A   Overcast
6:28 PM 14.0 °F 5.1 °F 9.5 °F 82% 30.11 in 10.0 mi East 5.8 mph - N/A   Overcast
6:48 PM 14.0 °F 5.1 °F 9.5 °F 82% 30.10 in 10.0 mi East 5.8 mph - N/A   Overcast
7:08 PM 14.0 °F 5.1 °F 10.0 °F 84% 30.10 in 10.0 mi East 5.8 mph - N/A   Overcast
7:28 PM 14.0 °F 2.9 °F 10.0 °F 84% 30.09 in 10.0 mi East 8.1 mph - N/A   Overcast
7:48 PM 14.0 °F 2.9 °F 9.7 °F 83% 30.09 in 10.0 mi East 8.1 mph - N/A   Overcast
8:08 PM 14.0 °F 3.9 °F 9.9 °F 84% 30.08 in 10.0 mi East 6.9 mph - N/A   Overcast
8:28 PM 14.7 °F 5.9 °F 10.4 °F 83% 30.08 in 10.0 mi East 5.8 mph - N/A   Overcast
8:48 PM 14.5 °F 5.7 °F 10.2 °F 83% 30.08 in - ESE 5.8 mph - N/A   Unknown
9:09 PM 14.7 °F 5.9 °F 10.2 °F 82% 30.08 in - ESE 5.8 mph - N/A   Overcast
9:29 PM 14.5 °F 5.7 °F 10.0 °F 82% 30.08 in - ESE 5.8 mph - N/A   Overcast
9:48 PM 14.7 °F 5.9 °F 10.2 °F 82% 30.08 in - East 5.8 mph - N/A   Overcast
10:08 PM 14.0 °F 3.9 °F 10.0 °F 84% 30.08 in - East 6.9 mph - N/A   Overcast
10:27 PM 14.0 °F 2.0 °F 10.2 °F 85% 30.06 in - East 9.2 mph - N/A   Overcast
10:46 PM 14.0 °F 2.0 °F 10.2 °F 85% 30.06 in - East 9.2 mph - N/A   Overcast
11:08 PM 11.8 °F 0.3 °F 7.9 °F 84% 30.06 in - East 8.1 mph - N/A   Unknown
11:28 PM 11.7 °F 2.3 °F 8.2 °F 86% 30.06 in - East 5.8 mph - N/A   Unknown
11:48 PM 11.7 °F 1.1 °F 8.4 °F 87% 30.05 in - ESE 6.9 mph - N/A   Unknown